This demonstration page uses our WeatherBlox Daily Observations layout. Learn more.

Hourly Observations for September 4, 2016

Temp ( °F °C ) Dew Point ( °F °C ) Humidity (%) Winds ( mph kmh ) Pressure ( in mb ) Visibility ( mi km ) Precip ( " mm )
12:15 am 00:15 Cloudy with Light Rain 69 20.5 65 18.6 89 89 SSE 26 43 29.83 1010 10 16.09344 0.02 0.508
12:35 am 00:35 Partly Cloudy 68 20 65 18.6 92 92 SSE 24 39 29.83 1010 10 16.09344 0.03 0.762
12:55 am 00:55 Mostly Cloudy with Rain 68 19.9 65 18.5 92 92 SSE 28 44 29.83 1010 10 16.09344 0.03 0.762
1:15 am 01:15 Cloudy with Drizzle 67 19.2 64 17.7 91 91 SE 29 46 29.77 1008 10 16.09344 0.01 0.254
1:35 am 01:35 Partly Cloudy with Light Rain 67 19.2 62 16.8 86 86 SSE 30 48 29.8 1009 10 16.09344 0.02 0.508
1:55 am 01:55 Partly Cloudy with Light Rain 66 18.8 62 16.7 88 88 SE 22 35 29.8 1009 10 16.09344 0.02 0.508
2:15 am 02:15 Clear with Light Rain 67 19.7 64 18 90 90 SSE 28 44 29.8 1009 10 16.09344 0 0
2:35 am 02:35 Partly Cloudy with Light Drizzle 67 19.3 64 18 92 92 SE 29 46 29.77 1008 10 16.09344 0 0
2:55 am 02:55 Windy with Storms Likely 66 19 64 17.7 92 92 SE 30 48 29.74 1007 7 11.265408 0.01 0.254
3:15 am 03:15 Mostly Cloudy with Light Rain 66 18.7 64 17.5 93 93 SE 31 50 29.74 1007 10 16.09344 0.02 0.508
3:35 am 03:35 Mostly Cloudy 65 18.6 64 17.5 93 93 SSE 21 33 29.74 1007 10 16.09344 0.02 0.508
3:55 am 03:55 Cloudy 65 18.6 64 17.5 93 93 SSE 18 30 29.74 1007 10 16.09344 0.02 0.508
4:15 am 04:15 Cloudy 65 18.6 64 17.5 93 93 S 15 24 29.8 1009 10 16.09344 0 0
4:35 am 04:35 Cloudy 65 18.6 64 17.5 93 93 S 20 31 29.8 1009 10 16.09344 0 0
4:55 am 04:55 Cloudy 65 18.6 64 17.6 94 94 S 13 20 29.8 1009 10 16.09344 0 0
5:15 am 05:15 Cloudy 66 18.7 64 17.7 94 94 SSW 15 24 29.8 1009 10 16.09344 0 0
5:35 am 05:35 Cloudy with Nearby Thunderstorms 66 18.7 64 17.7 94 94 S 13 20 29.77 1008 10 16.09344 0 0
5:55 am 05:55 Cloudy 66 18.8 64 17.8 94 94 S 15 24 29.77 1008 10 16.09344 0 0
6:15 am 06:15 Cloudy 66 18.8 64 17.6 93 93 S 12 19 29.77 1008 10 16.09344 0 0
6:35 am 06:35 Cloudy 66 18.7 64 17.5 93 93 S 12 19 29.74 1007 10 16.09344 0 0
6:55 am 06:55 Cloudy 65 18.6 64 17.5 93 93 S 14 22 29.74 1007 10 16.09344 0 0
7:15 am 07:15 Cloudy 65 18.6 64 17.5 93 93 S 13 20 29.77 1008 10 16.09344 0 0
7:35 am 07:35 Cloudy 66 18.7 64 17.6 93 93 S 12 19 29.77 1008 10 16.09344 0 0
7:55 am 07:55 Cloudy 65 18.6 64 17.5 93 93 S 8 13 29.77 1008 10 16.09344 0 0
8:15 am 08:15 Partly Cloudy 66 18.9 64 17.8 93 93 SSE 10 17 29.77 1008 10 16.09344 0 0
8:35 am 08:35 Sunny 67 19.3 64 17.7 91 91 SSE 13 20 29.77 1008 10 16.09344 0 0
8:55 am 08:55 Mostly Cloudy 67 19.5 64 18 91 91 SSE 13 20 29.77 1008 10 16.09344 0 0
9:15 am 09:15 Cloudy 68 20.2 65 18.1 88 88 S 12 19 29.77 1008 10 16.09344 0 0
9:35 am 09:35 Cloudy 69 20.6 65 18.2 86 86 S 9 15 29.77 1008 10 16.09344 0 0
9:55 am 09:55 Cloudy 70 21.1 65 18.5 85 85 S 10 17 29.77 1008 10 16.09344 0 0
10:15 am 10:15 Cloudy 72 22 66 19.1 84 84 S 17 28 29.74 1007 10 16.09344 0 0
10:35 am 10:35 Cloudy 72 22.1 66 19.1 83 83 SSE 16 26 29.74 1007 10 16.09344 0 0
10:55 am 10:55 Cloudy 72 22 66 19 83 83 SSE 14 22 29.74 1007 10 16.09344 0 0
11:15 am 11:15 Cloudy 71 21.7 66 19 85 85 S 13 20 29.74 1007 10 16.09344 0 0
11:35 am 11:35 Cloudy 71 21.8 66 19 84 84 S 15 24 29.74 1007 10 16.09344 0 0
11:55 am 11:55 Cloudy 72 22.1 67 19.2 84 84 S 15 24 29.74 1007 10 16.09344 0 0
12:15 pm 12:15 Cloudy 71 21.7 66 19 85 85 S 10 17 29.74 1007 10 16.09344 0 0
12:35 pm 12:35 Cloudy 72 22 67 19.2 84 84 S 12 19 29.74 1007 10 16.09344 0 0
12:55 pm 12:55 Cloudy 72 22.1 67 19.5 85 85 S 12 19 29.74 1007 10 16.09344 0 0
1:15 pm 13:15 Cloudy 72 22.2 67 19.5 85 85 SSE 8 13 29.71 1006 10 16.09344 0 0
1:35 pm 13:35 Cloudy 73 23 68 19.9 83 83 SE 8 13 29.71 1006 10 16.09344 0 0
1:55 pm 13:55 Cloudy 75 24.1 69 20.4 80 80 SSE 7 11 29.71 1006 10 16.09344 0 0
2:15 pm 14:15 Cloudy 79 26.3 70 21 73 73 SSE 16 26 29.65 1004 10 16.09344 0 0
2:35 pm 14:35 Mostly Cloudy 80 26.9 70 21 70 70 SSE 13 20 29.65 1004 10 16.09344 0 0
2:55 pm 14:55 Cloudy 81 27.2 70 21.1 69 69 SSE 13 20 29.65 1004 10 16.09344 0 0
3:15 pm 15:15 Cloudy 82 28 70 20.9 65 65 SSE 14 22 29.65 1004 10 16.09344 0 0
3:35 pm 15:35 Cloudy 83 28.6 69 20.7 62 62 SSE 14 22 29.62 1003 10 16.09344 0 0
3:55 pm 15:55 Mostly Cloudy 85 29.4 69 20.7 60 60 SSE 20 31 29.62 1003 10 16.09344 0 0
4:15 pm 16:15 Partly Cloudy 84 29.1 69 20.3 59 59 SSE 15 24 29.62 1003 10 16.09344 0 0
4:35 pm 16:35 Mostly Cloudy 84 29 69 20.7 61 61 SSE 17 28 29.62 1003 10 16.09344 0 0
4:55 pm 16:55 Mostly Cloudy 85 29.7 69 20.7 58 58 SSE 20 31 29.62 1003 10 16.09344 0 0
5:15 pm 17:15 Partly Cloudy 85 29.2 69 20.3 59 59 SSE 14 22 29.62 1003 10 16.09344 0 0
5:35 pm 17:35 Sunny 84 28.7 68 20.1 60 60 SSE 18 30 29.62 1003 10 16.09344 0 0
5:55 pm 17:55 Partly Cloudy 83 28.5 68 20.2 61 61 SSE 16 26 29.59 1002 10 16.09344 0 0
6:15 pm 18:15 Sunny 83 28.3 68 20.1 61 61 SSE 14 22 29.59 1002 10 16.09344 0 0
6:35 pm 18:35 Sunny 82 28 68 19.8 61 61 SSE 16 26 29.62 1003 10 16.09344 0 0
6:55 pm 18:55 Sunny 82 27.5 67 19.6 62 62 SSE 14 22 29.62 1003 10 16.09344 0 0
7:15 pm 19:15 Sunny 81 27.3 67 19.5 62 62 SSE 20 31 29.59 1002 10 16.09344 0 0
7:35 pm 19:35 Sunny 81 27.1 67 19.2 62 62 SSE 21 33 29.59 1002 10 16.09344 0 0
7:55 pm 19:55 Sunny 80 26.9 66 19.1 62 62 SSE 17 28 29.59 1002 10 16.09344 0 0
8:15 pm 20:15 Clear 80 26.5 67 19.2 64 64 SSE 17 28 29.59 1002 10 16.09344 0 0
8:35 pm 20:35 Clear 79 26.1 67 19.4 67 67 SSE 16 26 29.62 1003 10 16.09344 0 0
8:55 pm 20:55 Clear 79 26.1 67 19.5 67 67 SSE 18 30 29.65 1004 10 16.09344 0 0
9:15 pm 21:15 Clear 79 26.1 67 19.5 67 67 SSE 21 33 29.62 1003 10 16.09344 0 0
9:35 pm 21:35 Mostly Cloudy 79 26.2 67 19.2 65 65 SSE 26 43 29.62 1003 10 16.09344 0 0
9:55 pm 21:55 Mostly Cloudy with Light Rain 78 25.5 67 19.5 70 70 S 32 52 29.62 1003 10 16.09344 0 0
10:15 pm 22:15 Partly Cloudy with Light Rain 77 25.1 67 19.3 70 70 S 28 44 29.62 1003 10 16.09344 0 0
10:35 pm 22:35 Partly Cloudy 77 24.9 66 19.1 70 70 SSE 26 43 29.59 1002 10 16.09344 0 0
10:37 pm 22:37 Partly Cloudy 77 25 66 19 69 69 SSE 28 44 29.59 1002 10 16.09344 0 0
10:55 pm 22:55 Clear 77 25.1 66 18.8 68 68 S 24 39 29.62 1003 10 16.09344 0 0
11:15 pm 23:15 Clear 78 25.4 65 18.6 66 66 S 23 37 29.65 1004 10 16.09344 0 0
11:35 pm 23:35 Clear 78 25.7 65 18.5 65 65 S 20 31 29.65 1004 10 16.09344 0 0
11:55 pm 23:55 Clear 77 25 65 18.6 68 68 S 14 22 29.65 1004 10 16.09344 0 0

Powered by AerisWeather